[[{"header":{"parameterUnit":"m.s-1","parameterCategory":1,"la1":30.2991,"la2":30.254,"lo1":-89.0895,"lo2":-89.0444,"dy":0.0017,"dx":0.0017,"nx":28,"ny":28,"refTime":"2023-09-09T21:00:00:Z","depth":0,"parameterNumber":2,"parameterNumberName":"U-component_of_WINDS"},"data":[0,0,0,0,0,0,0,0,0,0,0,0,0,0,0,0,0,0,0,0,0,0,0,0,0,0,0,0,0,0,0,0,0,0,0,0,0,0,0,0,0,0,0,0,0,0,0,0,0,0,0,0,0,0,0,0,0,0,1.0382,1.0383,0,1.0443,1.0444,1.0444,1.0439,1.0438,1.0437,1.0436,1.0501,1.0503,1.0506,0,0,0,0,0,0,0,0,0,0,0,0,0,1.0262,1.0265,1.0382,1.0383,1.0384,1.0443,1.0444,1.0445,1.0439,1.0438,1.0437,1.0436,1.05,1.0503,1.0506,0,0,0,0,0,0,0,0,0,0,0,0,0,1.0318,1.0265,1.0382,1.0388,1.0389,1.0443,1.0444,1.0445,1.0439,1.0438,1.0437,1.0435,1.0499,1.0503,1.0507,1.0559,0,0,1.0519,1.052,0,0,0,0,0,0,0,0,1.0315,1.0322,1.0387,1.0388,1.0389,1.0432,1.0425,1.0483,1.044,1.042,1.0436,1.0435,1.0479,1.0485,1.0499,1.0562,1.0565,1.0519,1.0521,1.0523,1.0524,0,0,0,0,0,0,0,1.0311,1.032,1.0406,1.0388,1.0389,1.0388,1.0394,1.0436,1.0457,1.0422,1.0422,1.0429,1.048,1.0495,1.0501,1.0566,1.0519,1.0522,1.0525,1.0526,1.0671,1.0672,0,0,0,0,0,0,1.0306,1.0317,1.0405,1.0408,1.0348,1.0391,1.0398,1.042,1.0457,1.0461,1.043,1.0428,1.049,1.0496,1.0503,1.0564,1.0523,1.0527,1.0529,1.0669,1.0671,1.0673,0,0,0,0,0,0,1.0303,1.0313,1.0402,1.0362,1.0374,1.0395,1.0419,1.0422,1.0437,1.0463,1.0466,1.0442,1.0489,1.0497,1.0544,1.0566,1.0528,1.0532,1.0667,1.067,1.0672,1.0688,0,0,0,0,0,0,1.03,1.0313,1.0333,1.0363,1.0376,1.0442,1.042,1.0424,1.0444,1.0442,1.0475,1.0479,1.0488,1.0538,1.0548,1.0571,1.0535,1.0666,1.0669,1.0671,1.0685,1.069,1.0694,0,0,0,0,0,1.0295,1.0336,1.0334,1.0344,1.0401,1.0443,1.0451,1.046,1.0446,1.0466,1.0481,1.0478,1.0562,1.0543,1.0554,1.0578,1.0664,1.0668,1.0671,1.0683,1.0689,1.0694,0,0,0,0,0,0,1.0309,1.034,1.0338,1.0389,1.0413,1.0442,1.0468,1.0466,1.0496,1.0493,1.0504,1.0511,1.0557,1.0573,1.0551,1.0629,1.0611,1.0617,1.0617,1.0623,1.0628,1.0622,1.0538,0,0,0,0,0,1.0318,1.0349,1.0375,1.0418,1.043,1.0447,1.0466,1.047,1.0496,1.0506,1.0526,1.0551,1.0583,1.0604,1.0636,1.0688,1.0694,1.071,1.0714,1.0718,1.0722,1.0749,1.0755,1.0684,1.0684,1.0684,0,0,1.0337,1.0357,1.0377,1.0421,1.044,1.0472,1.0455,1.0491,1.0514,1.0512,1.0556,1.0571,1.0601,1.0649,1.0672,1.0664,1.0744,1.0722,1.0725,1.0728,1.0753,1.0759,1.0765,1.0686,1.0686,1.0685,0,0,1.0386,1.0406,1.0443,1.0462,1.0491,1.0501,1.051,1.0539,1.0548,1.0592,1.059,1.0619,1.0675,1.0695,1.0712,1.0767,1.0764,1.0777,1.0801,1.0826,1.0832,1.0837,1.0854,1.0861,1.0782,1.0782,1.0782,0,1.0406,1.0454,1.0462,1.0496,1.0515,1.0513,1.055,1.0568,1.0606,1.0619,1.0609,1.0677,1.0697,1.0749,1.0762,1.0777,1.0786,1.0773,1.083,1.0835,1.084,1.0857,1.0864,1.0783,1.0783,1.0783,1.0783,0,1.0475,1.0508,1.0534,1.0569,1.0591,1.0626,1.0639,1.066,1.0663,1.0674,1.0718,1.0742,1.0776,1.0789,1.0793,1.0841,1.0835,1.0828,1.081,1.0848,1.0864,1.087,1.0785,1.0785,1.0784,1.0784,0,0,1.0535,1.0573,1.0582,1.0597,1.0628,1.0653,1.0688,1.072,1.0737,1.0763,1.0792,1.0838,1.083,1.085,1.0856,1.0878,1.0917,1.0868,1.0869,1.0874,1.0969,1.0973,1.098,1.0916,1.0917,1.0918,1.0966,0,1.0587,1.0647,1.0655,1.0708,1.0738,1.0736,1.0766,1.0788,1.0799,1.0826,1.0839,1.087,1.0859,1.0871,1.0893,1.0908,1.0936,1.0905,1.0941,1.0943,1.0932,1.0989,1.0994,1.1037,1.0972,1.0973,1.0974,0,1.0654,1.068,1.0736,1.0761,1.0773,1.08,1.0829,1.0855,1.0879,1.0886,1.0907,1.0909,1.0944,1.0926,1.0973,1.0952,1.0967,1.0977,1.0979,1.0981,1.0959,1.0991,1.1052,1.1057,1.0984,1.0984,1.0983,0,1.0689,1.0739,1.0778,1.0791,1.0821,1.0839,1.0853,1.0876,1.0894,1.092,1.0931,1.0962,1.0978,1.1001,1.1011,1.0997,1.1057,1.104,1.1062,1.1062,1.1074,1.1073,1.1136,1.1087,1.1087,1.1087,1.1087,0,1.0744,1.0778,1.0793,1.0817,1.0855,1.0863,1.09,1.0913,1.0933,1.0959,1.096,1.0985,1.0997,1.1023,1.1032,1.1068,1.1076,1.1082,1.1083,1.1081,1.108,1.109,1.1086,1.1089,1.1089,1.1088,1.1088,0,1.079,1.0801,1.0843,1.0868,1.0875,1.0901,1.0922,1.0945,1.0956,1.0988,1.0997,1.1014,1.1044,1.1056,1.1095,1.11,1.1142,1.1142,1.1133,1.1133,1.1154,1.1151,1.1225,1.1234,1.118,1.1181,1.1181,0,1.0823,1.0849,1.0875,1.0892,1.0906,1.0934,1.0952,1.0961,1.0979,1.1008,1.1027,1.1057,1.1081,1.113,1.1146,1.1174,1.1174,1.1198,1.1178,1.1174,1.1172,1.1169,1.1171,1.1201,1.1202,1.1202,1.1202,0,1.088,1.0884,1.091,1.0937,1.0958,1.098,1.1002,1.1016,1.1028,1.1049,1.1079,1.1098,1.1135,1.1165,1.1193,1.1207,1.1206,1.1208,1.1215,1.1211,1.1204,1.1206,1.114,1.1206,1.1206,1.1206,1.1206,1.1205,1.0919,1.0941,1.0962,1.099,1.1007,1.1026,1.1048,1.1061,1.1086,1.1116,1.1121,1.1153,1.1175,1.1213,1.1228,1.1253,1.1247,1.1257,1.1259,1.1261,1.1261,1.1201,1.1259,1.1259,1.1258,1.1258,1.1258,0,1.0974,1.0988,1.1013,1.1042,1.1064,1.1061,1.1084,1.1102,1.113,1.115,1.1173,1.1207,1.1235,1.1252,1.128,1.1297,1.1297,1.1304,1.1302,1.1304,1.1266,1.1256,1.1303,1.1303,1.1303,1.1303,1.1303,1.1303,1.1005,1.1041,1.1047,1.1091,1.1104,1.1135,1.1148,1.1165,1.1181,1.1219,1.1241,1.1252,1.1271,1.13,1.1325,1.1329,1.1339,1.1345,1.1349,1.1312,1.1308,1.1303,1.1294,1.1348,1.1348,1.1385,1.1386,1.1386]},{"header":{"parameterUnit":"m.s-1","parameterCategory":1,"la1":30.2991,"la2":30.254,"lo1":-89.0895,"lo2":-89.0444,"dy":0.0017,"dx":0.0017,"nx":28,"ny":28,"refTime":"2023-09-09T21:00:00:Z","depth":0,"parameterNumber":3,"parameterNumberName":"V-component_of_WINDS"},"data":[0,0,0,0,0,0,0,0,0,0,0,0,0,0,0,0,0,0,0,0,0,0,0,0,0,0,0,0,0,0,0,0,0,0,0,0,0,0,0,0,0,0,0,0,0,0,0,0,0,0,0,0,0,0,0,0,0,0,2.644,2.6441,0,2.6484,2.6484,2.6485,2.6486,2.6485,2.6485,2.6484,2.6525,2.6527,2.6528,0,0,0,0,0,0,0,0,0,0,0,0,0,2.6352,2.6353,2.644,2.6441,2.6441,2.6484,2.6484,2.6485,2.6486,2.6485,2.6485,2.6484,2.6525,2.6527,2.6529,0,0,0,0,0,0,0,0,0,0,0,0,0,2.6392,2.6354,2.644,2.6447,2.6448,2.6484,2.6484,2.6485,2.6486,2.6485,2.6484,2.6484,2.6524,2.6527,2.6529,2.656,0,0,2.6536,2.6537,0,0,0,0,0,0,0,0,2.639,2.6395,2.6445,2.6447,2.6448,2.6479,2.6468,2.651,2.6486,2.6471,2.6484,2.6483,2.651,2.6514,2.6524,2.6562,2.6563,2.6536,2.6538,2.6539,2.654,0,0,0,0,0,0,0,2.6387,2.6393,2.6457,2.6446,2.6448,2.6446,2.6451,2.6476,2.6495,2.6473,2.6473,2.6478,2.6511,2.6521,2.6524,2.6564,2.6536,2.6538,2.654,2.6541,2.6625,2.6625,0,0,0,0,0,0,2.6384,2.6391,2.6456,2.6459,2.6416,2.6448,2.6454,2.6469,2.6494,2.6498,2.6479,2.6478,2.6518,2.6522,2.6526,2.6561,2.6539,2.6541,2.6542,2.6624,2.6625,2.6626,0,0,0,0,0,0,2.6382,2.6389,2.6454,2.6425,2.6433,2.6451,2.6468,2.6471,2.6481,2.6499,2.6502,2.6487,2.6517,2.6523,2.655,2.6562,2.6542,2.6544,2.6623,2.6624,2.6625,2.6632,0,0,0,0,0,0,2.6379,2.6389,2.6402,2.6425,2.6435,2.648,2.6469,2.6472,2.6486,2.6485,2.6507,2.651,2.6517,2.6547,2.6553,2.6565,2.6546,2.6622,2.6623,2.6625,2.6631,2.6634,2.6636,0,0,0,0,0,2.6376,2.6403,2.6403,2.6411,2.6452,2.6481,2.6486,2.6494,2.6487,2.6499,2.651,2.6509,2.656,2.655,2.6556,2.657,2.6621,2.6623,2.6625,2.663,2.6633,2.6636,0,0,0,0,0,0,2.638,2.6406,2.6407,2.6442,2.6459,2.6481,2.6497,2.6498,2.6517,2.6515,2.6524,2.6529,2.6556,2.6566,2.6554,2.6598,2.6589,2.6593,2.6591,2.6594,2.6597,2.6593,2.6548,0,0,0,0,0,2.6385,2.6408,2.6429,2.6458,2.6466,2.648,2.6493,2.6498,2.6515,2.6522,2.6535,2.6551,2.657,2.6583,2.6602,2.6633,2.6636,2.6645,2.6647,2.6649,2.6651,2.6664,2.6668,2.6632,2.6632,2.6632,0,0,2.6396,2.6413,2.6427,2.6459,2.6473,2.6493,2.6486,2.651,2.6524,2.6526,2.6552,2.6562,2.658,2.6608,2.6622,2.6618,2.6662,2.6651,2.6652,2.6654,2.6667,2.667,2.6673,2.6633,2.6633,2.6632,0,0,2.6426,2.6442,2.6466,2.648,2.6501,2.6509,2.6515,2.6536,2.6543,2.657,2.657,2.6587,2.6621,2.6633,2.6643,2.6673,2.6672,2.6679,2.6691,2.6704,2.6707,2.6709,2.6718,2.6721,2.6682,2.6682,2.6682,0,2.6436,2.6469,2.6479,2.6501,2.6513,2.6516,2.6538,2.6551,2.6577,2.6584,2.6579,2.662,2.6632,2.6662,2.6669,2.6678,2.6683,2.6677,2.6706,2.6709,2.6711,2.6719,2.6722,2.6682,2.6682,2.6682,2.6682,0,2.6479,2.6502,2.6518,2.6543,2.6557,2.658,2.659,2.6603,2.6606,2.6614,2.664,2.6654,2.6675,2.6682,2.6686,2.6711,2.6708,2.6705,2.6695,2.6715,2.6722,2.6726,2.6683,2.6683,2.6683,2.6682,0,0,2.6514,2.6542,2.6547,2.6557,2.6579,2.6595,2.6616,2.6637,2.6646,2.6663,2.6679,2.6706,2.6702,2.6714,2.6718,2.673,2.6749,2.6725,2.6725,2.6727,2.6775,2.6777,2.678,2.6749,2.6749,2.675,2.6773,0,2.6544,2.6583,2.659,2.6623,2.6642,2.6643,2.666,2.6674,2.6682,2.6697,2.6705,2.6723,2.6718,2.6725,2.6736,2.6745,2.6759,2.6743,2.6762,2.6762,2.6756,2.6785,2.6787,2.6808,2.6776,2.6777,2.6777,0,2.6585,2.6602,2.6637,2.6653,2.6661,2.6678,2.6695,2.6711,2.6725,2.6729,2.6741,2.6743,2.6762,2.6753,2.6777,2.6767,2.6774,2.6779,2.678,2.6781,2.677,2.6784,2.6815,2.6817,2.6782,2.6782,2.6781,0,2.6604,2.6636,2.666,2.6668,2.6688,2.6699,2.6708,2.6722,2.6732,2.6747,2.6753,2.677,2.6779,2.679,2.6796,2.6789,2.6819,2.6811,2.6821,2.6821,2.6827,2.6827,2.6858,2.6835,2.6835,2.6835,2.6835,0,2.6636,2.6656,2.6668,2.6682,2.6704,2.6711,2.6732,2.674,2.6752,2.6766,2.6768,2.6781,2.6788,2.6802,2.6806,2.6824,2.6829,2.6831,2.6832,2.683,2.683,2.6835,2.6833,2.6836,2.6835,2.6835,2.6835,0,2.666,2.6669,2.6695,2.6711,2.6715,2.673,2.6743,2.6756,2.6763,2.6781,2.6785,2.6795,2.6811,2.6818,2.6838,2.684,2.686,2.6861,2.6856,2.6855,2.6865,2.6863,2.6899,2.6903,2.6879,2.6879,2.688,0,2.6679,2.6695,2.6712,2.6722,2.6731,2.6747,2.6758,2.6764,2.6774,2.679,2.6801,2.6817,2.683,2.6854,2.6862,2.6876,2.6876,2.6887,2.6878,2.6875,2.6874,2.6872,2.6872,2.6889,2.6889,2.6889,2.6889,0,2.6711,2.6714,2.6729,2.6746,2.6758,2.6771,2.6784,2.6791,2.6799,2.6811,2.6827,2.6837,2.6856,2.6871,2.6885,2.6892,2.6891,2.6892,2.6895,2.6893,2.6889,2.6889,2.6859,2.6891,2.6891,2.6891,2.6891,2.6891,2.6731,2.6744,2.6757,2.6774,2.6784,2.6795,2.6807,2.6815,2.6829,2.6845,2.6848,2.6864,2.6875,2.6894,2.6901,2.6913,2.691,2.6915,2.6916,2.6916,2.6916,2.6888,2.6916,2.6916,2.6916,2.6916,2.6916,0,2.6761,2.6769,2.6784,2.6801,2.6814,2.6813,2.6826,2.6835,2.685,2.6861,2.6873,2.689,2.6904,2.6913,2.6926,2.6933,2.6933,2.6937,2.6935,2.6936,2.6919,2.6914,2.6936,2.6936,2.6936,2.6936,2.6936,2.6936,2.6778,2.6798,2.6802,2.6826,2.6834,2.6851,2.6858,2.6867,2.6876,2.6895,2.6906,2.6912,2.6921,2.6935,2.6946,2.6948,2.6952,2.6956,2.6957,2.694,2.6938,2.6936,2.6932,2.6957,2.6957,2.6973,2.6973,2.6974]}]]